Regional Weather Roundup
Issued by NWS

Home | Current Version | Previous Version | Graphics & Text | Print | Product List | Glossary On
Versions: 1 2 3 4 5 6 7 8 9 10 11 12 13 14 15 16 17 18 19 20 21 22 23 24 25 26 27 28 29 30 31 32 33 34 35 36 37 38 39 40 41 42 43 44 45 46 47 48 49 50
000
ASUS43 KIND 232109
RWRIN

WEATHER ROUNDUP FOR INDIANA
NATIONAL WEATHER SERVICE INDIANAPOLIS IN
400 PM EST MON JAN 23 2017

NOTE: "FAIR" INDICATES FEW OR NO CLOUDS BELOW 12,000 FEET WITH NO
SIGNIFICANT WEATHER AND/OR OBSTRUCTIONS TO VISIBILITY.

* - STATION DOES NOT REPORT WEATHER SUCH AS PRECIPITATION OR FOG.

+ - STATION NOT QUALITY CONTROLLED BY THE NATIONAL WEATHER SERVICE.
    USE DATA WITH CAUTION...ESPECIALLY DEWPOINT AND RELATIVE
    HUMIDITY OBSERVATIONS.

INZ001>003-010>013-019-020-232200-
NORTHWEST INDIANA

CITY           SKY/WX    TMP DP  RH WIND       PRES   REMARKS
GARY /AIRPORT/ PTSUNNY   41  37  87 NW12      29.74S
KNOX *+        CLOUDY    37  27  65 N15       29.71R
LA PORTE +     CLOUDY    38  37  96 N10       29.72R
MICHIGAN CITY+ CLOUDY    37  37 100 N8        29.74R
MONTICELLO +   CLOUDY    40  37  86 N13G18    29.69R
RENSSELAER +     N/A     41  37  87 NW8       29.72R
VALPARAISO     CLOUDY    39  38  96 N12G18    29.73R FOG

$$

LMZ046-743>745-232200-
SOUTHERN LAKE MICHIGAN

STATION/POSITION TIME  TEMP    WIND        PRES    WAVE
                       AIR SEA DIR/SP/G            HT
                 (UTC) (F)     (DEG/KT/KT) (MB)    (FT)
BURNS HARBOR     2040   36     340/  5/  7 1007.8R
MICHIGAN CITY    2040   37     320/ 11/ 11   N/A

$$

INZ004-005-014>016-021>024-232200-
NORTH CENTRAL INDIANA

CITY           SKY/WX    TMP DP  RH WIND       PRES   REMARKS
ELKHART        CLOUDY    39  37  93 N12       29.69R FOG
GOSHEN         CLOUDY    41  38  89 NW15      29.67R FOG
LOGANSPORT +   CLOUDY    39  37  93 N12       29.69S
PERU/GRISSOM   CLOUDY    41  41 100 NW12      29.65S FOG
ROCHESTER +    CLOUDY    41  41 100 NW12      29.68S FOG
SOUTH BEND     CLOUDY    38  37  97 N12       29.71R FOG
WARSAW +       LGT RAIN  39  37  93 NW10      29.67S

$$

INZ006>009-017-018-025>027-232200-
NORTHEAST INDIANA

CITY           SKY/WX    TMP DP  RH WIND       PRES   REMARKS
ANGOLA *+      CLOUDY    39  30  70 N5        29.64S
AUBURN +       RAIN      43  41  93 N7        29.65R
FORT WAYNE     LGT RAIN  45  42  89 N10       29.64R
HUNTINGTON +   LGT RAIN  43  41  95 NW10      29.64R
KENDALLVILLE + RAIN      42  42 100 N7        29.65R

$$

INZ028-029-035-036-043>045-051>053-232200-
WEST CENTRAL INDIANA

CITY           SKY/WX    TMP DP  RH WIND       PRES   REMARKS
CRAWFORDSVL +  CLOUDY    39  39 100 NW12      29.69S
GREENCASTLE +  CLOUDY    41  37  87 NW12      29.69S
LAFAYETTE      CLOUDY    41  38  89 N12       29.70R
TERRE HAUTE    CLOUDY    41  35  79 NW13G21   29.70F

$$

INZ030>032-037>040-046>048-054>057-064-065-232200-
CENTRAL INDIANA

CITY           SKY/WX    TMP DP  RH WIND       PRES   REMARKS
CP ATTERBURY + CLOUDY    43  41  93 NW14G21   29.66R
COLUMBUS       CLOUDY    43  43 100 NW17G23   29.65R FOG
FRANKFORT +    CLOUDY    42  40  92 NW13      29.70R FOG
GREENWOOD *+   CLOUDY    43  43  98 NW12G17   29.66R
INDIANAPOLIS   CLOUDY    42  39  89 NW18G24   29.66R FOG
-EAGLE CREEK   CLOUDY    42  39  89 NW10G21   29.66R FOG
KOKOMO +       CLOUDY    41  40  96 NW15      29.67S
MARION +       CLOUDY    43  41  93 NW12      29.65R FOG
MT COMFORT *+  CLOUDY    41  41 100 N14       29.65R
SHELBYVILLE    CLOUDY    44  40  85 NW17      29.63R
ZIONSVILLE +   CLOUDY    40  39  97 NW13      29.67R FOG

$$

INZ033-034-041-042-049-050-058-059-232200-
EAST CENTRAL INDIANA

CITY           SKY/WX    TMP DP  RH WIND       PRES   REMARKS
MUNCIE         CLOUDY    45  43  93 NW17      29.62R FOG

$$

INZ060-061-067>069-081>083-085>088-232200-
SOUTHWEST INDIANA

CITY           SKY/WX    TMP DP  RH WIND       PRES   REMARKS
EVANSVILLE     CLOUDY    43  36  76 NW14G21   29.73R
HUNTINGBURG *+ CLOUDY    43  37  81 NW12      29.69R
WASHINGTON +   CLOUDY    42  37  82 NW16      29.70R

$$

INZ062-063-066-070>080-084-089>092-232200-
SOUTH CENTRAL AND SOUTHEAST INDIANA

CITY           SKY/WX    TMP DP  RH WIND       PRES   REMARKS
BLOOMINGTON    CLOUDY    43  39  86 VRB3      29.66R
MADISON *+     CLOUDY    45  43  93 NW9       29.63R
NORTH VERNON + CLOUDY   N/A N/A N/A NW16G22   29.63R FOG
SEYMOUR +      CLOUDY    46  41  81 NW10      29.64R

$$





USA.gov is the U.S. government's official web portal to all federal, state and local government web resources and services.